contact:dominique.lefevre@mio.osupytheas.fr, maurice.libes@osupytheas.fr, didier.mallarino@osupytheas.fr
Project:EMSO http://www.emso-fr.org/EMSO-France
Depth: 2436.0 m
Title:EMSO Ligure Ouest : Data MII capteur MICROCAT
DateTime_Computer,Latitude,Longitude,Temperature,Conductivity,Pressure,DateTime_Instrument
DateTime_Computer,Latitude,Longitude,degC,S m-1,dbar,DateTime_Instrument
2022-08-07T00:01:49Z,42.805,6.029,13.3015,4.60070,2470.684,2022-8-07T02:03:38Z
2022-08-07T00:04:52Z,42.805,6.029,13.3012,4.60057,2470.684,2022-8-07T02:06:41Z
2022-08-07T00:07:56Z,42.805,6.029,13.3015,4.60054,2470.624,2022-8-07T02:09:44Z
2022-08-07T00:10:59Z,42.805,6.029,13.3013,4.60067,2470.67,2022-8-07T02:12:47Z
2022-08-07T00:14:02Z,42.805,6.029,13.3013,4.60057,2470.646,2022-8-07T02:15:50Z
2022-08-07T00:17:05Z,42.805,6.029,13.3015,4.60060,2470.646,2022-8-07T02:18:53Z
2022-08-07T00:20:08Z,42.805,6.029,13.3018,4.60064,2470.67,2022-8-07T02:21:57Z
2022-08-07T00:23:11Z,42.805,6.029,13.3014,4.60061,2470.67,2022-8-07T02:25:00Z
2022-08-07T00:26:14Z,42.805,6.029,13.3014,4.60061,2470.661,2022-8-07T02:28:03Z
2022-08-07T00:29:17Z,42.805,6.029,13.3012,4.60061,2470.707,2022-8-07T02:31:06Z
2022-08-07T00:32:20Z,42.805,6.029,13.3014,4.60077,2470.67,2022-8-07T02:34:09Z
2022-08-07T00:35:24Z,42.805,6.029,13.3015,4.60078,2470.646,2022-8-07T02:37:12Z
2022-08-07T00:38:27Z,42.805,6.029,13.3015,4.60072,2470.67,2022-8-07T02:40:15Z
2022-08-07T00:41:30Z,42.805,6.029,13.3018,4.60062,2470.661,2022-8-07T02:43:18Z
2022-08-07T00:44:33Z,42.805,6.029,13.3015,4.60059,2470.646,2022-8-07T02:46:21Z
2022-08-07T00:47:36Z,42.805,6.029,13.3019,4.60064,2470.646,2022-8-07T02:49:25Z
2022-08-07T00:50:39Z,42.805,6.029,13.3015,4.60072,2470.624,2022-8-07T02:52:28Z
2022-08-07T00:53:42Z,42.805,6.029,13.3011,4.60062,2470.67,2022-8-07T02:55:31Z
2022-08-07T00:56:45Z,42.805,6.029,13.3018,4.60069,2470.684,2022-8-07T02:58:34Z
2022-08-07T00:59:49Z,42.805,6.029,13.3015,4.60071,2470.661,2022-8-07T03:01:37Z
2022-08-07T01:02:52Z,42.805,6.029,13.3012,4.60064,2470.67,2022-8-07T03:04:40Z
2022-08-07T01:05:55Z,42.805,6.029,13.3014,4.60073,2470.661,2022-8-07T03:07:43Z
2022-08-07T01:08:58Z,42.805,6.029,13.3014,4.60061,2470.661,2022-8-07T03:10:46Z
2022-08-07T01:12:01Z,42.805,6.029,13.3014,4.60064,2470.646,2022-8-07T03:13:49Z
2022-08-07T01:15:04Z,42.805,6.029,13.3023,4.60067,2470.684,2022-8-07T03:16:53Z
2022-08-07T01:18:07Z,42.805,6.029,13.3015,4.60067,2470.67,2022-8-07T03:19:56Z
2022-08-07T01:21:10Z,42.805,6.029,13.3012,4.60061,2470.661,2022-8-07T03:22:59Z
2022-08-07T01:24:13Z,42.805,6.029,13.3011,4.60067,2470.646,2022-8-07T03:26:02Z
2022-08-07T01:27:17Z,42.805,6.029,13.3016,4.60059,2470.661,2022-8-07T03:29:05Z
2022-08-07T01:30:20Z,42.805,6.029,13.3015,4.60068,2470.661,2022-8-07T03:32:08Z
2022-08-07T01:33:23Z,42.805,6.029,13.3019,4.60060,2470.646,2022-8-07T03:35:11Z
2022-08-07T01:36:26Z,42.805,6.029,13.3011,4.60058,2470.6,2022-8-07T03:38:14Z
2022-08-07T01:39:29Z,42.805,6.029,13.3014,4.60062,2470.624,2022-8-07T03:41:18Z
2022-08-07T01:42:32Z,42.805,6.029,13.3017,4.60072,2470.624,2022-8-07T03:44:21Z
2022-08-07T01:45:35Z,42.805,6.029,13.3009,4.60062,2470.637,2022-8-07T03:47:24Z
2022-08-07T01:48:38Z,42.805,6.029,13.3016,4.60072,2470.684,2022-8-07T03:50:27Z
2022-08-07T01:51:42Z,42.805,6.029,13.3011,4.60074,2470.646,2022-8-07T03:53:30Z
2022-08-07T01:54:45Z,42.805,6.029,13.3017,4.60074,2470.646,2022-8-07T03:56:33Z
2022-08-07T01:57:48Z,42.805,6.029,13.3014,4.60063,2470.646,2022-8-07T03:59:36Z
2022-08-07T02:00:51Z,42.805,6.029,13.3019,4.60067,2470.637,2022-8-07T04:02:39Z
2022-08-07T02:03:54Z,42.805,6.029,13.3020,4.60064,2470.646,2022-8-07T04:05:42Z
2022-08-07T02:06:57Z,42.805,6.029,13.3010,4.60055,2470.661,2022-8-07T04:08:46Z
2022-08-07T02:10:00Z,42.805,6.029,13.3015,4.60069,2470.67,2022-8-07T04:11:49Z
2022-08-07T02:13:03Z,42.805,6.029,13.3015,4.60058,2470.661,2022-8-07T04:14:52Z
2022-08-07T02:16:06Z,42.805,6.029,13.3019,4.60064,2470.67,2022-8-07T04:17:55Z
2022-08-07T02:19:10Z,42.805,6.029,13.3009,4.60059,2470.624,2022-8-07T04:20:58Z
2022-08-07T02:22:13Z,42.805,6.029,13.3017,4.60062,2470.624,2022-8-07T04:24:01Z
2022-08-07T02:25:16Z,42.805,6.029,13.3015,4.60079,2470.661,2022-8-07T04:27:04Z
2022-08-07T02:28:19Z,42.805,6.029,13.3014,4.60065,2470.707,2022-8-07T04:30:07Z
2022-08-07T02:31:22Z,42.805,6.029,13.3012,4.60062,2470.67,2022-8-07T04:33:11Z
2022-08-07T02:34:25Z,42.805,6.029,13.3021,4.60074,2470.624,2022-8-07T04:36:14Z
2022-08-07T02:37:28Z,42.805,6.029,13.3021,4.60068,2470.67,2022-8-07T04:39:17Z
2022-08-07T02:40:31Z,42.805,6.029,13.3007,4.60062,2470.646,2022-8-07T04:42:20Z
2022-08-07T02:43:34Z,42.805,6.029,13.3011,4.60064,2470.61,2022-8-07T04:45:23Z
2022-08-07T02:46:38Z,42.805,6.029,13.3016,4.60064,2470.624,2022-8-07T04:48:26Z
2022-08-07T02:49:41Z,42.805,6.029,13.3010,4.60067,2470.637,2022-8-07T04:51:29Z
2022-08-07T02:52:44Z,42.805,6.029,13.3016,4.60097,2470.624,2022-8-07T04:54:32Z
2022-08-07T02:55:47Z,42.805,6.029,13.3010,4.60057,2470.646,2022-8-07T04:57:35Z
2022-08-07T02:58:50Z,42.805,6.029,13.3015,4.60056,2470.624,2022-8-07T05:00:39Z
2022-08-07T03:01:53Z,42.805,6.029,13.3014,4.60074,2470.624,2022-8-07T05:03:42Z
2022-08-07T03:04:56Z,42.805,6.029,13.3011,4.60069,2470.624,2022-8-07T05:06:45Z
2022-08-07T03:07:59Z,42.805,6.029,13.3015,4.60061,2470.624,2022-8-07T05:09:48Z
2022-08-07T03:11:03Z,42.805,6.029,13.3023,4.60064,2470.661,2022-8-07T05:12:51Z
2022-08-07T03:14:06Z,42.805,6.029,13.3017,4.60067,2470.646,2022-8-07T05:15:54Z
2022-08-07T03:17:09Z,42.805,6.029,13.3024,4.60087,2470.624,2022-8-07T05:18:57Z
2022-08-07T03:20:12Z,42.805,6.029,13.3022,4.60078,2470.646,2022-8-07T05:22:00Z
2022-08-07T03:23:15Z,42.805,6.029,13.3011,4.60089,2470.646,2022-8-07T05:25:04Z
2022-08-07T03:26:18Z,42.805,6.029,13.3014,4.60066,2470.624,2022-8-07T05:28:07Z
2022-08-07T03:29:21Z,42.805,6.029,13.3015,4.60065,2470.646,2022-8-07T05:31:10Z
2022-08-07T03:32:24Z,42.805,6.029,13.3012,4.60057,2470.646,2022-8-07T05:34:13Z
2022-08-07T03:35:27Z,42.805,6.029,13.3015,4.60079,2470.624,2022-8-07T05:37:16Z
2022-08-07T03:38:31Z,42.805,6.029,13.3015,4.60057,2470.624,2022-8-07T05:40:19Z
2022-08-07T03:41:34Z,42.805,6.029,13.3012,4.60059,2470.614,2022-8-07T05:43:22Z
2022-08-07T03:44:37Z,42.805,6.029,13.3015,4.60062,2470.624,2022-8-07T05:46:25Z
2022-08-07T03:47:40Z,42.805,6.029,13.3014,4.60077,2470.646,2022-8-07T05:49:28Z
2022-08-07T03:50:43Z,42.805,6.029,13.3015,4.60058,2470.646,2022-8-07T05:52:32Z
2022-08-07T03:53:46Z,42.805,6.029,13.3014,4.60069,2470.661,2022-8-07T05:55:35Z
2022-08-07T03:56:49Z,42.805,6.029,13.3027,4.60089,2470.624,2022-8-07T05:58:38Z
2022-08-07T03:59:52Z,42.805,6.029,13.3023,4.60084,2470.624,2022-8-07T06:01:41Z
2022-08-07T04:02:55Z,42.805,6.029,13.3009,4.60069,2470.624,2022-8-07T06:04:44Z
2022-08-07T04:05:59Z,42.805,6.029,13.3011,4.60072,2470.624,2022-8-07T06:07:47Z
2022-08-07T04:09:02Z,42.805,6.029,13.3022,4.60087,2470.624,2022-8-07T06:10:50Z
2022-08-07T04:12:05Z,42.805,6.029,13.3021,4.60075,2470.624,2022-8-07T06:13:53Z
2022-08-07T04:15:08Z,42.805,6.029,13.3013,4.60064,2470.646,2022-8-07T06:16:57Z
2022-08-07T04:18:11Z,42.805,6.029,13.3014,4.60071,2470.637,2022-8-07T06:20:00Z
2022-08-07T04:21:14Z,42.805,6.029,13.3020,4.60074,2470.614,2022-8-07T06:23:03Z
2022-08-07T04:24:17Z,42.805,6.029,13.3014,4.60059,2470.586,2022-8-07T06:26:06Z
2022-08-07T04:27:20Z,42.805,6.029,13.3011,4.60059,2470.624,2022-8-07T06:29:09Z
2022-08-07T04:30:24Z,42.805,6.029,13.3015,4.60067,2470.614,2022-8-07T06:32:12Z
2022-08-07T04:33:27Z,42.805,6.029,13.3014,4.60070,2470.624,2022-8-07T06:35:15Z
2022-08-07T04:36:30Z,42.805,6.029,13.3013,4.60053,2470.6,2022-8-07T06:38:18Z
2022-08-07T04:39:33Z,42.805,6.029,13.3011,4.60078,2470.6,2022-8-07T06:41:21Z
2022-08-07T04:42:36Z,42.805,6.029,13.3031,4.60076,2470.646,2022-8-07T06:44:25Z
2022-08-07T04:45:39Z,42.805,6.029,13.3026,4.60075,2470.6,2022-8-07T06:47:28Z
2022-08-07T04:48:42Z,42.805,6.029,13.3022,4.60093,2470.646,2022-8-07T06:50:31Z
2022-08-07T04:51:45Z,42.805,6.029,13.3011,4.60074,2470.577,2022-8-07T06:53:34Z
2022-08-07T04:54:48Z,42.805,6.029,13.3011,4.60057,2470.6,2022-8-07T06:56:37Z
2022-08-07T04:57:52Z,42.805,6.029,13.3013,4.60059,2470.6,2022-8-07T06:59:40Z
2022-08-07T05:00:55Z,42.805,6.029,13.3017,4.60067,2470.624,2022-8-07T07:02:43Z
2022-08-07T05:03:58Z,42.805,6.029,13.3011,4.60069,2470.646,2022-8-07T07:05:46Z
2022-08-07T05:07:01Z,42.805,6.029,13.3012,4.60068,2470.6,2022-8-07T07:08:49Z
2022-08-07T05:10:04Z,42.805,6.029,13.3014,4.60074,2470.6,2022-8-07T07:11:53Z
2022-08-07T05:13:07Z,42.805,6.029,13.3013,4.60059,2470.591,2022-8-07T07:14:56Z
2022-08-07T05:16:10Z,42.805,6.029,13.3016,4.60081,2470.6,2022-8-07T07:17:59Z
2022-08-07T05:19:13Z,42.805,6.029,13.3021,4.60069,2470.637,2022-8-07T07:21:02Z
2022-08-07T05:22:17Z,42.805,6.029,13.3015,4.60077,2470.614,2022-8-07T07:24:05Z
2022-08-07T05:25:20Z,42.805,6.029,13.3010,4.60072,2470.614,2022-8-07T07:27:08Z
2022-08-07T05:28:23Z,42.805,6.029,13.3015,4.60064,2470.624,2022-8-07T07:30:11Z
2022-08-07T05:31:26Z,42.805,6.029,13.3020,4.60074,2470.624,2022-8-07T07:33:14Z
2022-08-07T05:34:29Z,42.805,6.029,13.3019,4.60084,2470.6,2022-8-07T07:36:17Z
2022-08-07T05:37:32Z,42.805,6.029,13.3013,4.60087,2470.586,2022-8-07T07:39:21Z
2022-08-07T05:40:35Z,42.805,6.029,13.3011,4.60071,2470.577,2022-8-07T07:42:24Z
2022-08-07T05:43:38Z,42.805,6.029,13.3023,4.60090,2470.6,2022-8-07T07:45:27Z
2022-08-07T05:46:41Z,42.805,6.029,13.3019,4.60076,2470.553,2022-8-07T07:48:30Z
2022-08-07T05:49:45Z,42.805,6.029,13.3022,4.60099,2470.539,2022-8-07T07:51:33Z
2022-08-07T05:52:48Z,42.805,6.029,13.3012,4.60076,2470.577,2022-8-07T07:54:36Z
2022-08-07T05:55:51Z,42.805,6.029,13.3014,4.60086,2470.577,2022-8-07T07:57:39Z
2022-08-07T05:58:54Z,42.805,6.029,13.3012,4.60069,2470.553,2022-8-07T08:00:42Z
2022-08-07T06:01:57Z,42.805,6.029,13.3009,4.60069,2470.6,2022-8-07T08:03:46Z
2022-08-07T06:05:00Z,42.805,6.029,13.3014,4.60091,2470.591,2022-8-07T08:06:49Z
2022-08-07T06:08:03Z,42.805,6.029,13.3012,4.60078,2470.567,2022-8-07T08:09:52Z
2022-08-07T06:11:06Z,42.805,6.029,13.3031,4.60078,2470.553,2022-8-07T08:12:55Z
2022-08-07T06:14:10Z,42.805,6.029,13.3017,4.60104,2470.6,2022-8-07T08:15:58Z
2022-08-07T06:17:13Z,42.805,6.029,13.3015,4.60083,2470.567,2022-8-07T08:19:01Z
2022-08-07T06:20:16Z,42.805,6.029,13.3016,4.60089,2470.591,2022-8-07T08:22:04Z
2022-08-07T06:23:19Z,42.805,6.029,13.3011,4.60080,2470.591,2022-8-07T08:25:07Z
2022-08-07T06:26:22Z,42.805,6.029,13.3019,4.60084,2470.637,2022-8-07T08:28:10Z
2022-08-07T06:29:25Z,42.805,6.029,13.3027,4.60084,2470.553,2022-8-07T08:31:14Z
2022-08-07T06:32:28Z,42.805,6.029,13.3019,4.60077,2470.591,2022-8-07T08:34:17Z
2022-08-07T06:35:31Z,42.805,6.029,13.3022,4.60081,2470.563,2022-8-07T08:37:20Z
2022-08-07T06:38:34Z,42.805,6.029,13.3025,4.60109,2470.567,2022-8-07T08:40:23Z
2022-08-07T06:41:38Z,42.805,6.029,13.3019,4.60085,2470.53,2022-8-07T08:43:26Z
2022-08-07T06:44:41Z,42.805,6.029,13.3011,4.60079,2470.6,2022-8-07T08:46:29Z
2022-08-07T06:47:44Z,42.805,6.029,13.3024,4.60082,2470.567,2022-8-07T08:49:32Z
2022-08-07T06:50:47Z,42.805,6.029,13.3017,4.60068,2470.53,2022-8-07T08:52:35Z
2022-08-07T06:53:50Z,42.805,6.029,13.3017,4.60084,2470.53,2022-8-07T08:55:39Z
2022-08-07T06:56:53Z,42.805,6.029,13.3020,4.60081,2470.53,2022-8-07T08:58:42Z
2022-08-07T06:59:56Z,42.805,6.029,13.3021,4.60085,2470.577,2022-8-07T09:01:45Z
2022-08-07T07:02:59Z,42.805,6.029,13.3013,4.60082,2470.553,2022-8-07T09:04:48Z
2022-08-07T07:06:02Z,42.805,6.029,13.3016,4.60086,2470.553,2022-8-07T09:07:51Z
2022-08-07T07:09:06Z,42.805,6.029,13.3016,4.60069,2470.614,2022-8-07T09:10:54Z
2022-08-07T07:12:09Z,42.805,6.029,13.3013,4.60062,2470.577,2022-8-07T09:13:57Z
2022-08-07T07:15:12Z,42.805,6.029,13.3019,4.60073,2470.567,2022-8-07T09:17:00Z
2022-08-07T07:18:15Z,42.805,6.029,13.3027,4.60091,2470.553,2022-8-07T09:20:03Z
2022-08-07T07:21:18Z,42.805,6.029,13.3028,4.60084,2470.53,2022-8-07T09:23:07Z
2022-08-07T07:24:21Z,42.805,6.029,13.3024,4.60093,2470.567,2022-8-07T09:26:10Z
2022-08-07T07:27:24Z,42.805,6.029,13.3024,4.60087,2470.53,2022-8-07T09:29:13Z
2022-08-07T07:30:27Z,42.805,6.029,13.3022,4.60081,2470.53,2022-8-07T09:32:16Z
2022-08-07T07:33:31Z,42.805,6.029,13.3026,4.60083,2470.52,2022-8-07T09:35:19Z
2022-08-07T07:36:34Z,42.805,6.029,13.3018,4.60086,2470.544,2022-8-07T09:38:22Z
2022-08-07T07:39:37Z,42.805,6.029,13.3019,4.60089,2470.53,2022-8-07T09:41:25Z
2022-08-07T07:42:40Z,42.805,6.029,13.3014,4.60088,2470.53,2022-8-07T09:44:28Z
2022-08-07T07:45:43Z,42.805,6.029,13.3026,4.60117,2470.507,2022-8-07T09:47:32Z
2022-08-07T07:48:46Z,42.805,6.029,13.3027,4.60102,2470.53,2022-8-07T09:50:35Z
2022-08-07T07:51:49Z,42.805,6.029,13.3024,4.60087,2470.567,2022-8-07T09:53:38Z
2022-08-07T07:54:52Z,42.805,6.029,13.3022,4.60096,2470.507,2022-8-07T09:56:41Z
2022-08-07T07:57:55Z,42.805,6.029,13.3025,4.60099,2470.53,2022-8-07T09:59:44Z
2022-08-07T08:00:59Z,42.805,6.029,13.3024,4.60092,2470.544,2022-8-07T10:02:47Z
2022-08-07T08:04:02Z,42.805,6.029,13.3017,4.60087,2470.567,2022-8-07T10:05:50Z
2022-08-07T08:07:05Z,42.805,6.029,13.3014,4.60100,2470.52,2022-8-07T10:08:53Z
2022-08-07T08:10:08Z,42.805,6.029,13.3019,4.60093,2470.53,2022-8-07T10:11:56Z
2022-08-07T08:13:11Z,42.805,6.029,13.3017,4.60116,2470.507,2022-8-07T10:15:00Z
2022-08-07T08:16:14Z,42.805,6.029,13.3029,4.60117,2470.53,2022-8-07T10:18:03Z
2022-08-07T08:19:17Z,42.805,6.029,13.3021,4.60081,2470.497,2022-8-07T10:21:06Z
2022-08-07T08:22:20Z,42.805,6.029,13.3017,4.60091,2470.53,2022-8-07T10:24:09Z
2022-08-07T08:25:24Z,42.805,6.029,13.3022,4.60097,2470.507,2022-8-07T10:27:12Z
2022-08-07T08:28:27Z,42.805,6.029,13.3029,4.60097,2470.507,2022-8-07T10:30:15Z
2022-08-07T08:31:30Z,42.805,6.029,13.3017,4.60104,2470.507,2022-8-07T10:33:18Z
2022-08-07T08:34:33Z,42.805,6.029,13.3032,4.60103,2470.544,2022-8-07T10:36:21Z
2022-08-07T08:37:36Z,42.805,6.029,13.3033,4.60104,2470.567,2022-8-07T10:39:25Z
2022-08-07T08:40:39Z,42.805,6.029,13.3028,4.60103,2470.53,2022-8-07T10:42:28Z
2022-08-07T08:43:42Z,42.805,6.029,13.3021,4.60094,2470.53,2022-8-07T10:45:31Z
2022-08-07T08:46:45Z,42.805,6.029,13.3023,4.60084,2470.53,2022-8-07T10:48:34Z
2022-08-07T08:49:49Z,42.805,6.029,13.3019,4.60094,2470.53,2022-8-07T10:51:37Z
2022-08-07T08:52:52Z,42.805,6.029,13.3026,4.60102,2470.53,2022-8-07T10:54:40Z
2022-08-07T08:55:55Z,42.805,6.029,13.3024,4.60091,2470.53,2022-8-07T10:57:43Z
2022-08-07T08:58:58Z,42.805,6.029,13.3037,4.60103,2470.497,2022-8-07T11:00:46Z
2022-08-07T09:02:01Z,42.805,6.029,13.3023,4.60115,2470.544,2022-8-07T11:03:50Z
2022-08-07T09:05:04Z,42.805,6.029,13.3019,4.60097,2470.52,2022-8-07T11:06:53Z
2022-08-07T09:08:07Z,42.805,6.029,13.3021,4.60100,2470.53,2022-8-07T11:09:56Z
2022-08-07T09:11:10Z,42.805,6.029,13.3036,4.60111,2470.553,2022-8-07T11:12:59Z
2022-08-07T09:14:13Z,42.805,6.029,13.3024,4.60099,2470.497,2022-8-07T11:16:02Z
2022-08-07T09:17:17Z,42.805,6.029,13.3027,4.60090,2470.53,2022-8-07T11:19:05Z
2022-08-07T09:20:20Z,42.805,6.029,13.3024,4.60099,2470.52,2022-8-07T11:22:08Z
2022-08-07T09:23:23Z,42.805,6.029,13.3025,4.60093,2470.53,2022-8-07T11:25:11Z
2022-08-07T09:26:26Z,42.805,6.029,13.3018,4.60097,2470.52,2022-8-07T11:28:15Z
2022-08-07T09:29:29Z,42.805,6.029,13.3021,4.60118,2470.53,2022-8-07T11:31:18Z
2022-08-07T09:32:32Z,42.805,6.029,13.3012,4.60087,2470.52,2022-8-07T11:34:21Z
2022-08-07T09:35:35Z,42.805,6.029,13.3023,4.60102,2470.553,2022-8-07T11:37:24Z
2022-08-07T09:38:38Z,42.805,6.029,13.3020,4.60105,2470.53,2022-8-07T11:40:27Z
2022-08-07T09:41:42Z,42.805,6.029,13.3022,4.60085,2470.52,2022-8-07T11:43:30Z
2022-08-07T09:44:45Z,42.805,6.029,13.3026,4.60123,2470.493,2022-8-07T11:46:33Z
2022-08-07T09:47:48Z,42.805,6.029,13.3031,4.60101,2470.52,2022-8-07T11:49:36Z
2022-08-07T09:50:51Z,42.805,6.029,13.3023,4.60104,2470.544,2022-8-07T11:52:40Z
2022-08-07T09:53:54Z,42.805,6.029,13.3023,4.60092,2470.483,2022-8-07T11:55:43Z
2022-08-07T09:56:57Z,42.805,6.029,13.3023,4.60104,2470.507,2022-8-07T11:58:46Z
2022-08-07T10:00:00Z,42.805,6.029,13.3023,4.60106,2470.544,2022-8-07T12:01:49Z
2022-08-07T10:03:03Z,42.805,6.029,13.3026,4.60111,2470.544,2022-8-07T12:04:52Z
2022-08-07T10:06:07Z,42.805,6.029,13.3016,4.60076,2470.52,2022-8-07T12:07:55Z
2022-08-07T10:09:10Z,42.805,6.029,13.3026,4.60086,2470.553,2022-8-07T12:10:58Z
2022-08-07T10:12:13Z,42.805,6.029,13.3028,4.60110,2470.544,2022-8-07T12:14:01Z
2022-08-07T10:15:16Z,42.805,6.029,13.3016,4.60087,2470.53,2022-8-07T12:17:05Z
2022-08-07T10:18:19Z,42.805,6.029,13.3021,4.60078,2470.507,2022-8-07T12:20:08Z
2022-08-07T10:21:22Z,42.805,6.029,13.3022,4.60099,2470.544,2022-8-07T12:23:11Z
2022-08-07T10:24:25Z,42.805,6.029,13.3039,4.60106,2470.544,2022-8-07T12:26:14Z
2022-08-07T10:27:28Z,42.805,6.029,13.3030,4.60100,2470.544,2022-8-07T12:29:17Z
2022-08-07T10:30:32Z,42.805,6.029,13.3029,4.60106,2470.544,2022-8-07T12:32:20Z
2022-08-07T10:33:35Z,42.805,6.029,13.3025,4.60087,2470.493,2022-8-07T12:35:23Z
2022-08-07T10:36:38Z,42.805,6.029,13.3018,4.60101,2470.53,2022-8-07T12:38:26Z
2022-08-07T10:39:41Z,42.805,6.029,13.3025,4.60085,2470.567,2022-8-07T12:41:29Z
2022-08-07T10:42:44Z,42.805,6.029,13.3033,4.60107,2470.553,2022-8-07T12:44:33Z
2022-08-07T10:45:47Z,42.805,6.029,13.3021,4.60098,2470.591,2022-8-07T12:47:36Z
2022-08-07T10:48:50Z,42.805,6.029,13.3013,4.60088,2470.577,2022-8-07T12:50:39Z
2022-08-07T10:51:53Z,42.805,6.029,13.3023,4.60096,2470.553,2022-8-07T12:53:42Z
2022-08-07T10:54:57Z,42.805,6.029,13.3022,4.60086,2470.567,2022-8-07T12:56:45Z
2022-08-07T10:58:00Z,42.805,6.029,13.3015,4.60089,2470.553,2022-8-07T12:59:48Z
2022-08-07T11:01:03Z,42.805,6.029,13.3026,4.60106,2470.516,2022-8-07T13:02:51Z
2022-08-07T11:04:06Z,42.805,6.029,13.3025,4.60094,2470.577,2022-8-07T13:05:54Z
2022-08-07T11:07:09Z,42.805,6.029,13.3018,4.60081,2470.567,2022-8-07T13:08:58Z
2022-08-07T11:10:12Z,42.805,6.029,13.3018,4.60076,2470.544,2022-8-07T13:12:01Z
2022-08-07T11:13:15Z,42.805,6.029,13.3018,4.60096,2470.591,2022-8-07T13:15:04Z
2022-08-07T11:16:18Z,42.805,6.029,13.3011,4.60077,2470.614,2022-8-07T13:18:07Z
2022-08-07T11:19:21Z,42.805,6.029,13.3018,4.60101,2470.577,2022-8-07T13:21:10Z
2022-08-07T11:22:25Z,42.805,6.029,13.3021,4.60114,2470.6,2022-8-07T13:24:13Z
2022-08-07T11:25:28Z,42.805,6.029,13.3019,4.60087,2470.577,2022-8-07T13:27:16Z
2022-08-07T11:28:31Z,42.805,6.029,13.3025,4.60095,2470.591,2022-8-07T13:30:19Z
2022-08-07T11:31:34Z,42.805,6.029,13.3039,4.60084,2470.567,2022-8-07T13:33:23Z
2022-08-07T11:34:37Z,42.805,6.029,13.3029,4.60104,2470.577,2022-8-07T13:36:26Z
2022-08-07T11:37:40Z,42.805,6.029,13.3018,4.60097,2470.591,2022-8-07T13:39:29Z
2022-08-07T11:40:43Z,42.805,6.029,13.3018,4.60080,2470.591,2022-8-07T13:42:32Z
2022-08-07T11:43:46Z,42.805,6.029,13.3031,4.60102,2470.577,2022-8-07T13:45:35Z
2022-08-07T11:46:50Z,42.805,6.029,13.3019,4.60073,2470.553,2022-8-07T13:48:38Z
2022-08-07T11:49:53Z,42.805,6.029,13.3018,4.60106,2470.553,2022-8-07T13:51:41Z
2022-08-07T11:52:56Z,42.805,6.029,13.3015,4.60085,2470.577,2022-8-07T13:54:44Z
2022-08-07T11:55:59Z,42.805,6.029,13.3019,4.60102,2470.577,2022-8-07T13:57:48Z
2022-08-07T11:59:02Z,42.805,6.029,13.3022,4.60101,2470.614,2022-8-07T14:00:51Z
2022-08-07T12:02:05Z,42.805,6.029,13.3018,4.60081,2470.6,2022-8-07T14:03:54Z
2022-08-07T12:05:08Z,42.805,6.029,13.3021,4.60099,2470.6,2022-8-07T14:06:57Z
2022-08-07T12:08:11Z,42.805,6.029,13.3021,4.60097,2470.553,2022-8-07T14:10:00Z
2022-08-07T12:11:15Z,42.805,6.029,13.3016,4.60084,2470.614,2022-8-07T14:13:03Z
2022-08-07T12:14:18Z,42.805,6.029,13.3018,4.60080,2470.637,2022-8-07T14:16:06Z
2022-08-07T12:17:21Z,42.805,6.029,13.3026,4.60087,2470.6,2022-8-07T14:19:09Z
2022-08-07T12:20:24Z,42.805,6.029,13.3026,4.60088,2470.6,2022-8-07T14:22:12Z
2022-08-07T12:23:27Z,42.805,6.029,13.3026,4.60087,2470.614,2022-8-07T14:25:16Z
2022-08-07T12:26:30Z,42.805,6.029,13.3028,4.60097,2470.6,2022-8-07T14:28:19Z
2022-08-07T12:29:33Z,42.805,6.029,13.3022,4.60069,2470.614,2022-8-07T14:31:22Z
2022-08-07T12:32:36Z,42.805,6.029,13.3031,4.60114,2470.6,2022-8-07T14:34:25Z
2022-08-07T12:35:40Z,42.805,6.029,13.3024,4.60080,2470.6,2022-8-07T14:37:28Z
2022-08-07T12:38:43Z,42.805,6.029,13.3016,4.60074,2470.6,2022-8-07T14:40:31Z
2022-08-07T12:41:46Z,42.805,6.029,13.3020,4.60077,2470.6,2022-8-07T14:43:34Z
2022-08-07T12:44:49Z,42.805,6.029,13.3024,4.60076,2470.591,2022-8-07T14:46:37Z
2022-08-07T12:47:52Z,42.805,6.029,13.3021,4.60072,2470.577,2022-8-07T14:49:41Z
2022-08-07T12:50:55Z,42.805,6.029,13.3018,4.60097,2470.624,2022-8-07T14:52:44Z
2022-08-07T12:53:58Z,42.805,6.029,13.3019,4.60081,2470.6,2022-8-07T14:55:47Z
2022-08-07T12:57:01Z,42.805,6.029,13.3024,4.60081,2470.614,2022-8-07T14:58:50Z
2022-08-07T13:00:05Z,42.805,6.029,13.3019,4.60092,2470.614,2022-8-07T15:01:53Z
2022-08-07T13:03:08Z,42.805,6.029,13.3020,4.60102,2470.624,2022-8-07T15:04:56Z
2022-08-07T13:06:11Z,42.805,6.029,13.3021,4.60089,2470.624,2022-8-07T15:07:59Z
2022-08-07T13:09:14Z,42.805,6.029,13.3019,4.60076,2470.614,2022-8-07T15:11:02Z
2022-08-07T13:12:17Z,42.805,6.029,13.3018,4.60089,2470.624,2022-8-07T15:14:06Z
2022-08-07T13:15:20Z,42.805,6.029,13.3020,4.60080,2470.646,2022-8-07T15:17:09Z
2022-08-07T13:18:23Z,42.805,6.029,13.3019,4.60070,2470.591,2022-8-07T15:20:12Z
2022-08-07T13:21:26Z,42.805,6.029,13.3016,4.60099,2470.646,2022-8-07T15:23:15Z
2022-08-07T13:24:29Z,42.805,6.029,13.3028,4.60084,2470.637,2022-8-07T15:26:18Z
2022-08-07T13:27:33Z,42.805,6.029,13.3017,4.60075,2470.637,2022-8-07T15:29:21Z
2022-08-07T13:30:36Z,42.805,6.029,13.3027,4.60086,2470.6,2022-8-07T15:32:24Z
2022-08-07T13:33:39Z,42.805,6.029,13.3014,4.60073,2470.577,2022-8-07T15:35:27Z
2022-08-07T13:36:42Z,42.805,6.029,13.3019,4.60084,2470.6,2022-8-07T15:38:31Z
2022-08-07T13:39:45Z,42.805,6.029,13.3021,4.60092,2470.6,2022-8-07T15:41:34Z
2022-08-07T13:42:48Z,42.805,6.029,13.3015,4.60074,2470.637,2022-8-07T15:44:37Z
2022-08-07T13:45:51Z,42.805,6.029,13.3017,4.60084,2470.624,2022-8-07T15:47:40Z
2022-08-07T13:48:55Z,42.805,6.029,13.3017,4.60080,2470.637,2022-8-07T15:50:43Z
2022-08-07T13:51:58Z,42.805,6.029,13.3024,4.60088,2470.646,2022-8-07T15:53:46Z
2022-08-07T13:55:01Z,42.805,6.029,13.3019,4.60076,2470.624,2022-8-07T15:56:49Z
2022-08-07T13:58:04Z,42.805,6.029,13.3024,4.60080,2470.6,2022-8-07T15:59:52Z
2022-08-07T14:01:07Z,42.805,6.029,13.3016,4.60067,2470.624,2022-8-07T16:02:56Z
2022-08-07T14:04:10Z,42.805,6.029,13.3014,4.60074,2470.661,2022-8-07T16:05:59Z
2022-08-07T14:07:13Z,42.805,6.029,13.3016,4.60077,2470.646,2022-8-07T16:09:02Z
2022-08-07T14:10:16Z,42.805,6.029,13.3011,4.60069,2470.646,2022-8-07T16:12:05Z
2022-08-07T14:13:19Z,42.805,6.029,13.3014,4.60073,2470.646,2022-8-07T16:15:08Z
2022-08-07T14:16:23Z,42.805,6.029,13.3019,4.60083,2470.614,2022-8-07T16:18:11Z
2022-08-07T14:19:26Z,42.805,6.029,13.3014,4.60065,2470.661,2022-8-07T16:21:14Z
2022-08-07T14:22:29Z,42.805,6.029,13.3018,4.60087,2470.661,2022-8-07T16:24:17Z
2022-08-07T14:25:32Z,42.805,6.029,13.3015,4.60079,2470.646,2022-8-07T16:27:20Z
2022-08-07T14:28:35Z,42.805,6.029,13.3021,4.60081,2470.646,2022-8-07T16:30:24Z
2022-08-07T14:31:38Z,42.805,6.029,13.3016,4.60067,2470.646,2022-8-07T16:33:27Z
2022-08-07T14:34:41Z,42.805,6.029,13.3022,4.60079,2470.61,2022-8-07T16:36:30Z
2022-08-07T14:37:44Z,42.805,6.029,13.3017,4.60074,2470.661,2022-8-07T16:39:33Z
2022-08-07T14:40:48Z,42.805,6.029,13.3011,4.60077,2470.624,2022-8-07T16:42:36Z
2022-08-07T14:43:51Z,42.805,6.029,13.3017,4.60079,2470.624,2022-8-07T16:45:39Z
2022-08-07T14:46:54Z,42.805,6.029,13.3019,4.60085,2470.684,2022-8-07T16:48:42Z
2022-08-07T14:49:57Z,42.805,6.029,13.3019,4.60079,2470.624,2022-8-07T16:51:45Z
2022-08-07T14:53:00Z,42.805,6.029,13.3015,4.60081,2470.646,2022-8-07T16:54:49Z
2022-08-07T14:56:03Z,42.805,6.029,13.3013,4.60075,2470.637,2022-8-07T16:57:52Z
2022-08-07T14:59:06Z,42.805,6.029,13.3017,4.60072,2470.646,2022-8-07T17:00:55Z
2022-08-07T15:02:09Z,42.805,6.029,13.3014,4.60060,2470.646,2022-8-07T17:03:58Z
2022-08-07T15:05:13Z,42.805,6.029,13.3015,4.60061,2470.646,2022-8-07T17:07:01Z
2022-08-07T15:08:16Z,42.805,6.029,13.3013,4.60063,2470.646,2022-8-07T17:10:04Z
2022-08-07T15:11:19Z,42.805,6.029,13.3019,4.60066,2470.661,2022-8-07T17:13:07Z
2022-08-07T15:14:22Z,42.805,6.029,13.3015,4.60069,2470.661,2022-8-07T17:16:10Z